Wind_Speed
8 7 7 7 7 6 5 5 5 5 6 6 5 5 5 5 5 5 5 5 5 5 5 4 5 5 5 5 5 5 5 4 4 4 4 4 5 5 5 5 5 5
7 7 7 7 7 7 7 6 6 6 6 6 6 5 6 5 5 5 5 5 5 6 6 5 5 4 4 4 4 4 4 4 4 4 3 4 4 5 4 4 4 4
8 8 8 7 7 8 8 8 7 6 6 6 6 6 6 6 6 5 5 5 5 5 6 6 5 5 4 4 4 3 3 3 3 3 3 3 3 4 4 4 4 4
10 9 9 9 9 9 9 8 8 7 7 7 7 7 7 7 6 6 6 6 6 6 6 6 6 5 5 5 5 4 4 4 3 3 3 3 3 4 4 4 4 5
11 10 10 10 10 10 9 9 9 9 9 9 9 8 8 8 8 8 8 7 7 7 7 6 6 6 6 6 5 5 5 4 3 3 4 4 4 4 4 4 5 5
12 12 11 11 11 11 10 10 9 9 9 10 10 10 10 10 10 10 10 9 9 8 8 8 8 7 7 7 6 6 6 5 5 5 5 5 4 4 5 5 5 6
14 13 13 13 13 12 11 11 10 10 10 10 10 11 11 12 12 12 12 11 11 11 10 10 10 9 9 8 8 7 7 6 6 6 6 6 5 5 5 5 5 6
16 15 15 15 15 14 14 13 12 11 10 10 10 11 11 12 13 13 14 14 13 13 12 12 11 11 10 10 9 9 8 7 7 7 7 7 7 6 6 5 5 5
17 17 17 17 17 17 16 16 15 14 13 12 12 11 11 12 13 14 15 15 14 14 14 14 14 13 12 11 11 10 9 9 9 8 8 8 8 7 7 6 5 4
19 19 18 18 19 18 18 18 17 17 16 15 15 14 13 12 12 13 14 15 15 15 15 15 15 15 14 13 12 12 11 10 10 9 9 9 9 8 7 6 5 5
20 20 19 20 20 19 19 19 19 19 18 18 17 16 16 15 15 15 15 15 15 15 15 16 16 16 15 15 15 14 13 13 13 12 11 11 10 9 8 6 6 6
21 21 21 20 21 21 21 20 20 20 19 18 18 17 17 17 18 18 18 17 15 15 15 15 16 16 16 16 16 16 16 15 15 14 14 12 10 10 10 9 9 9
20 21 21 20 20 20 20 20 20 20 19 19 19 18 18 18 18 19 19 19 18 17 16 15 15 16 16 17 17 17 17 17 17 17 15 13 12 13 14 13 12 11
18 18 18 18 17 17 18 18 18 18 19 19 19 19 19 19 19 19 19 19 19 19 18 17 16 17 17 17 17 17 18 18 18 18 16 14 15 17 17 16 15 14
17 18 17 16 15 15 16 17 17 17 17 18 18 19 19 19 20 20 19 19 19 18 18 18 18 19 19 18 18 18 18 18 19 19 18 17 17 19 19 19 19 19
19 18 17 16 15 15 17 17 17 17 17 17 17 18 19 19 19 20 19 18 17 17 16 17 18 19 19 19 19 19 19 19 19 19 19 18 19 19 20 21 21 22
22 21 19 18 17 16 17 18 18 18 18 18 18 18 18 18 18 19 19 18 18 17 17 17 17 18 18 18 19 19 20 21 21 21 20 20 20 21 22 23 23 23
25 24 21 20 18 17 18 19 19 19 20 20 19 19 19 18 18 19 19 19 19 18 18 18 18 17 18 18 19 19 19 20 22 23 22 22 22 22 23 24 25 25
26 24 23 22 21 20 21 21 22 22 22 22 22 22 21 20 20 20 20 20 20 19 19 19 19 19 20 21 21 21 21 21 22 23 24 25 25 25 25 26 27 27
26 25 25 25 25 24 24 25 25 26 26 26 25 25 24 24 23 22 22 22 21 21 21 21 21 21 22 24 25 25 24 24 24 25 26 27 27 27 28 28 29 29
25 26 26 26 26 26 27 27 28 29 31 31 29 28 28 28 26 25 25 25 24 24 23 23 23 23 24 26 29 30 28 26 26 27 28 28 28 29 30 30 31 30
26 27 27 28 28 29 29 29 29 32 35 35 34 32 32 31 29 28 28 28 27 26 26 26 27 26 28 31 34 34 34 32 30 29 29 30 30 30 31 32 32 32
28 30 30 30 30 31 32 32 33 36 39 38 37 36 35 34 32 31 31 31 30 29 29 29 30 30 33 37 38 37 37 35 34 32 31 32 31 31 31 33 34 34
27 28 28 27 26 27 29 31 34 38 40 41 41 40 38 37 36 34 34 33 32 32 32 33 34 34 36 39 40 39 38 36 35 35 33 33 33 32 32 33 34 35
24 25 26 25 24 23 23 24 27 30 34 39 42 43 41 40 38 37 37 36 35 36 37 39 39 39 39 41 42 42 41 39 39 38 36 35 35 35 35 35 35 36
21 22 23 23 23 23 22 21 21 23 25 30 35 38 40 40 39 39 39 39 38 38 39 40 40 40 39 39 40 40 40 40 41 40 39 38 37 37 37 36 35 36
Wind_Direction
185 186 183 181 183 189 193 186 186 183 174 182 201 205 203 203 197 188 187 186 179 175 171 161 160 167 168 166 171 174 172 174 178 177 182 184 178 179 182 188 195 199
192 196 196 195 195 201 205 199 197 197 190 194 205 206 202 201 204 207 207 204 199 192 186 179 175 178 176 167 169 178 177 180 187 185 192 205 208 204 200 204 211 211
200 202 203 203 205 209 214 215 212 209 207 208 210 209 207 205 204 213 223 221 218 213 204 197 194 192 191 183 175 180 189 193 194 190 197 214 224 222 217 222 229 229
207 207 206 207 211 215 218 224 227 225 223 223 222 218 218 219 214 215 224 228 226 227 221 215 212 205 202 200 191 190 202 211 207 201 209 223 232 235 232 233 242 248
215 215 213 212 216 218 221 226 230 232 232 233 235 233 229 229 227 224 225 225 224 228 230 231 230 222 216 215 209 203 205 209 213 213 215 221 229 238 237 234 242 253
220 222 221 221 223 223 224 227 229 231 235 238 240 241 240 236 233 232 230 229 228 226 229 233 236 235 233 232 228 224 218 215 216 217 217 217 219 229 235 234 236 245
228 229 228 229 232 232 232 232 232 231 234 237 240 243 245 242 239 236 233 234 234 231 230 232 235 236 238 240 239 239 238 233 230 227 223 221 220 222 227 229 231 237
232 234 236 237 239 238 238 238 238 237 235 238 242 244 246 246 246 244 240 237 238 237 235 235 237 238 239 241 242 243 241 239 240 239 235 232 230 228 226 227 231 235
231 233 235 238 240 241 240 240 240 241 240 240 243 245 247 249 251 252 249 247 245 243 241 241 242 243 243 243 243 242 242 242 244 244 244 244 241 238 236 235 242 248
228 230 232 235 238 240 242 242 240 240 241 240 242 244 247 249 251 253 253 252 250 248 245 245 246 247 248 248 247 247 247 249 251 250 248 250 251 252 254 259 271 280
227 228 230 233 236 239 242 243 242 240 240 240 240 242 245 247 249 252 254 255 255 252 249 248 250 252 252 253 255 256 256 254 256 257 254 255 260 266 272 276 276 274
228 228 229 231 235 238 241 243 245 244 244 243 242 242 243 244 245 248 251 253 256 258 256 254 254 256 257 256 256 258 259 258 258 259 260 262 268 272 271 264 257 257
227 230 231 232 236 241 244 246 248 249 248 246 245 243 243 244 245 247 249 250 252 255 257 256 255 255 256 256 255 256 257 258 259 260 262 266 267 265 263 260 257 258
230 234 234 234 237 244 250 253 254 254 254 253 251 247 244 244 246 247 249 250 250 250 253 255 255 254 253 253 255 257 257 258 260 261 260 259 259 261 262 263 263 261
228 232 231 232 236 241 247 251 253 253 254 255 256 254 250 247 247 249 250 251 251 250 249 250 252 253 253 254 254 255 257 258 259 261 261 257 257 260 261 262 263 262
228 233 234 235 238 243 249 252 253 251 249 249 250 254 255 251 248 249 250 250 249 246 244 245 249 252 255 255 255 256 258 260 261 263 263 261 258 258 259 260 261 262
231 234 237 238 238 243 249 254 257 256 254 251 247 248 251 250 247 245 245 246 245 242 240 241 246 252 256 259 260 259 259 261 263 265 266 265 261 258 257 258 259 260
232 235 239 242 243 245 249 254 256 256 257 257 254 251 249 248 246 243 240 239 240 241 243 244 248 254 262 267 268 267 264 263 264 266 267 268 265 262 259 258 258 258
232 235 239 242 245 248 250 253 256 256 256 258 258 257 254 250 248 246 244 242 241 243 248 254 259 262 266 269 271 270 268 267 267 268 267 266 264 263 262 261 259 258
239 242 245 248 248 248 249 250 253 255 256 256 258 258 256 254 250 248 249 249 249 250 252 257 262 265 268 272 274 271 266 263 264 266 266 264 263 263 262 262 261 260
244 247 251 254 253 251 250 250 254 257 258 257 257 257 256 256 253 250 250 252 253 255 255 257 258 259 263 269 272 272 270 266 265 267 268 267 265 263 261 260 260 260
246 250 253 255 254 253 253 254 256 259 260 259 258 257 258 259 258 256 254 253 254 255 256 258 258 258 261 264 266 267 268 268 267 268 269 270 268 265 262 259 258 258
254 257 257 255 253 252 253 252 252 253 257 259 259 258 258 260 261 261 260 257 255 254 256 258 260 260 263 266 266 266 266 267 267 266 266 267 269 268 264 261 259 257
255 257 258 257 254 253 253 253 252 252 255 258 258 257 257 258 259 260 261 260 258 256 256 258 259 259 260 262 264 265 266 266 265 264 263 262 263 265 266 264 262 260
251 252 254 255 255 255 256 256 256 256 256 256 257 257 257 258 259 261 262 262 262 261 260 259 260 261 260 261 263 264 264 263 261 261 261 259 258 260 263 264 264 264
248 250 252 253 255 256 257 257 258 260 259 259 259 259 258 257 258 260 261 263 263 262 260 259 261 262 262 262 264 265 265 263 261 260 259 258 258 258 259 261 263 264
Height
5948 5948 5949 5950 5951 5952 5952 5953 5953 5954 5954 5954 5955 5956 5956 5956 5956 5956 5956 5956 5956 5956 5957 5957 5957 5958 5958 5958 5959 5959 5960 5960 5960 5960 5960 5960 5961 5961 5961 5960 5960 5960
5948 5948 5949 5950 5951 5951 5952 5952 5953 5953 5954 5954 5954 5955 5956 5956 5956 5956 5956 5956 5956 5956 5956 5956 5957 5957 5958 5958 5958 5958 5959 5959 5959 5960 5960 5960 5960 5960 5960 5960 5960 5960
5947 5948 5949 5949 5950 5950 5951 5951 5952 5953 5953 5953 5954 5954 5955 5955 5955 5955 5956 5956 5956 5956 5956 5956 5956 5957 5957 5957 5958 5958 5958 5959 5959 5959 5959 5959 5959 5959 5959 5960 5960 5959
5946 5947 5948 5949 5949 5950 5950 5950 5951 5952 5952 5953 5953 5953 5954 5954 5954 5955 5955 5956 5956 5956 5956 5956 5956 5956 5957 5957 5957 5957 5958 5958 5958 5958 5958 5959 5959 5959 5959 5959 5959 5959
5945 5946 5947 5948 5948 5949 5949 5949 5950 5951 5951 5951 5952 5952 5953 5953 5953 5954 5954 5955 5955 5956 5956 5956 5956 5956 5956 5956 5956 5957 5957 5957 5957 5958 5958 5958 5958 5958 5958 5959 5958 5958
5944 5945 5946 5946 5947 5947 5948 5948 5949 5949 5950 5950 5951 5951 5952 5952 5952 5953 5953 5954 5955 5955 5955 5955 5955 5956 5956 5956 5956 5956 5956 5957 5957 5957 5957 5957 5957 5957 5957 5957 5958 5958
5942 5943 5944 5945 5945 5946 5946 5947 5948 5948 5949 5949 5950 5950 5951 5951 5952 5952 5952 5953 5954 5954 5954 5954 5954 5955 5955 5955 5956 5956 5956 5956 5956 5956 5956 5956 5956 5956 5956 5956 5956 5957
5940 5941 5942 5943 5943 5944 5945 5946 5946 5947 5948 5948 5949 5949 5950 5950 5951 5951 5951 5952 5952 5953 5953 5953 5953 5954 5954 5954 5955 5955 5956 5956 5956 5956 5956 5955 5955 5955 5955 5955 5955 5956
5937 5938 5939 5940 5942 5942 5943 5944 5945 5946 5946 5947 5948 5948 5949 5950 5950 5950 5950 5951 5951 5951 5952 5952 5953 5953 5953 5954 5954 5954 5955 5955 5955 5955 5955 5955 5954 5954 5954 5955 5955 5955
5935 5936 5937 5938 5939 5940 5941 5942 5943 5944 5945 5946 5946 5947 5948 5949 5949 5949 5949 5950 5950 5950 5950 5951 5951 5952 5952 5953 5953 5953 5954 5954 5953 5953 5953 5953 5953 5954 5954 5955 5955 5955
5932 5933 5934 5935 5936 5937 5938 5939 5941 5942 5943 5944 5945 5945 5946 5947 5947 5948 5948 5948 5949 5949 5949 5949 5950 5950 5951 5951 5952 5952 5952 5952 5952 5952 5952 5952 5952 5953 5954 5954 5954 5954
5929 5930 5931 5932 5933 5935 5936 5937 5938 5940 5941 5941 5942 5943 5943 5944 5945 5945 5946 5946 5947 5947 5947 5948 5949 5949 5949 5950 5950 5950 5950 5950 5950 5950 5951 5951 5952 5952 5952 5951 5951 5951
5927 5928 5929 5930 5931 5932 5934 5935 5936 5937 5938 5939 5940 5940 5941 5941 5942 5942 5943 5943 5944 5945 5945 5946 5947 5947 5947 5947 5947 5948 5948 5948 5948 5948 5949 5950 5950 5949 5949 5949 5949 5949
5926 5927 5928 5929 5930 5931 5932 5934 5935 5936 5937 5937 5937 5938 5939 5939 5939 5940 5940 5941 5942 5942 5943 5943 5944 5944 5944 5944 5945 5945 5946 5946 5946 5946 5947 5948 5947 5946 5947 5947 5947 5947
5924 5925 5926 5927 5928 5929 5930 5931 5932 5934 5934 5935 5935 5936 5937 5937 5938 5938 5938 5939 5939 5940 5940 5941 5941 5941 5941 5942 5943 5943 5943 5943 5944 5944 5945 5946 5945 5945 5945 5945 5944 5944
5922 5923 5924 5925 5925 5926 5927 5928 5929 5931 5931 5932 5932 5933 5934 5935 5936 5936 5936 5937 5937 5938 5938 5938 5938 5938 5939 5939 5940 5941 5941 5941 5942 5942 5942 5943 5944 5943 5942 5942 5942 5942
5919 5920 5922 5922 5923 5923 5924 5925 5926 5928 5928 5929 5929 5930 5930 5931 5932 5933 5933 5934 5934 5935 5935 5935 5936 5936 5936 5937 5937 5938 5939 5939 5939 5939 5940 5941 5941 5940 5940 5939 5939 5940
5915 5917 5919 5920 5921 5921 5921 5922 5923 5925 5926 5926 5927 5927 5927 5928 5929 5929 5930 5931 5931 5932 5932 5933 5933 5934 5934 5934 5935 5935 5936 5937 5937 5937 5937 5937 5938 5938 5937 5937 5937 5937
5913 5914 5916 5917 5918 5919 5919 5919 5920 5922 5923 5924 5924 5924 5924 5925 5926 5926 5927 5928 5929 5930 5930 5931 5931 5932 5932 5932 5932 5933 5933 5934 5934 5935 5934 5934 5934 5934 5935 5934 5934 5934
5910 5911 5912 5914 5915 5915 5916 5917 5918 5919 5920 5920 5921 5921 5922 5922 5922 5923 5924 5926 5927 5928 5929 5930 5930 5930 5929 5929 5929 5930 5930 5931 5931 5931 5931 5931 5931 5931 5931 5931 5931 5930
5907 5908 5909 5910 5911 5912 5913 5914 5915 5916 5916 5917 5917 5918 5918 5918 5919 5920 5921 5923 5925 5926 5926 5927 5927 5927 5926 5926 5926 5926 5926 5927 5928 5928 5928 5928 5928 5927 5927 5927 5927 5927
5905 5906 5906 5907 5907 5908 5909 5911 5913 5913 5912 5913 5914 5914 5914 5915 5915 5916 5918 5920 5922 5922 5923 5923 5923 5923 5923 5923 5923 5923 5923 5923 5924 5924 5924 5924 5924 5924 5924 5923 5923 5923
5901 5902 5903 5903 5903 5904 5905 5906 5909 5909 5908 5908 5909 5910 5910 5910 5911 5912 5914 5916 5918 5919 5919 5919 5919 5920 5919 5918 5918 5918 5919 5919 5920 5920 5920 5920 5920 5920 5920 5920 5919 5919
5898 5899 5900 5900 5900 5901 5901 5902 5903 5903 5903 5904 5904 5905 5906 5906 5907 5909 5910 5911 5913 5914 5914 5914 5914 5915 5914 5913 5912 5913 5914 5915 5915 5915 5915 5915 5915 5916 5916 5916 5916 5915
5895 5896 5897 5897 5898 5898 5898 5898 5898 5898 5899 5899 5899 5901 5902 5903 5904 5906 5906 5907 5909 5909 5908 5908 5908 5909 5909 5908 5908 5908 5910 5911 5911 5910 5911 5911 5911 5911 5912 5912 5912 5911
5893 5893 5894 5894 5895 5895 5895 5895 5895 5895 5895 5895 5896 5897 5899 5900 5902 5902 5901 5902 5903 5903 5903 5903 5903 5904 5904 5904 5904 5905 5905 5906 5906 5906 5906 5906 5906 5906 5906 5907 5907 5907